Location: B?lite?ti
(46.2833°N, 22.7333°E)
Time: 17:31:51
(UTC+00:00)

CZ-4B R/B - Pass Details

Date: 24 January 2021
Orbit: 387 x 458 km, 97.6° (Epoch: 01 March)

Event Time Altitude Azimuth Distance (km) Brightness Sun altitude
Exits shadow 16:48:20 - 8° (N) 2,224 4.7 -14.8°
Reaches altitude 10° 16:49:52 10° 6° (N) 1,570 4.0 -15.1°
Maximum altitude 16:53:10 59° 286° (WNW) 509 1.9 -15.6°
Drops below altitude 10° 16:56:22 10° 206° (SSW) 1,517 4.6 -16.2°
Sets 16:58:21 0° 203° (SSW) 2,363 5.5 -16.5°
